Wind_Speed
10 3 3 4 3 2 3 7 7 4 1 3 3 19 24 14 15 15 7 8 10 9 12 21 28 31 29 28 31 33 34 32 27 23 20 19 19 17 16 15 14 15 17 19 20 21 23 24 25 26 26 27 27 28 27 25 23 24 25 25 25 24 23 24 23 22 21 20 20 21 22 23 25 25 26 28 31 33 34 34 34 35 34 33 31 31
6 3 3 1 1 2 2 4 5 7 6 3 3 13 16 5 9 14 11 9 6 2 2 9 13 14 17 18 20 23 27 25 21 19 17 17 15 14 15 15 15 16 17 19 20 21 22 23 24 25 25 26 25 26 26 25 24 23 24 25 26 25 24 24 24 24 24 23 22 21 21 22 23 24 25 26 27 30 32 33 33 35 36 35 33 33
3 1 3 2 3 3 4 6 4 5 7 3 3 4 2 5 2 5 4 5 5 7 7 7 5 7 10 10 11 13 15 16 16 16 15 15 13 14 14 15 19 19 18 19 20 21 22 23 24 24 25 25 25 26 26 26 26 25 25 25 26 26 25 26 26 27 27 27 26 25 24 23 24 26 26 26 27 28 29 31 32 33 34 35 35 35
3 1 4 4 4 2 5 7 3 2 5 3 5 4 3 2 5 4 2 2 3 5 7 5 5 7 7 7 8 9 11 13 13 14 15 15 15 15 16 18 22 23 22 22 21 21 22 24 25 25 26 26 27 28 28 28 28 28 28 27 27 27 27 28 28 29 29 29 28 27 27 26 26 27 28 28 28 28 28 29 31 31 32 33 34 35
4 4 6 5 4 4 4 3 5 6 1 5 5 3 5 8 6 5 3 1 2 3 2 3 5 6 7 6 7 9 11 13 13 14 15 16 18 19 20 22 24 26 26 26 24 24 24 25 26 27 27 28 29 29 30 30 30 31 31 31 30 29 29 30 30 31 31 31 30 29 28 27 27 27 27 27 28 28 28 28 29 30 31 31 32 34
5 6 6 5 5 5 4 3 7 9 5 8 9 6 7 9 4 2 4 3 4 4 2 3 6 7 9 7 8 11 12 13 15 16 17 20 20 21 24 24 26 27 27 27 27 27 27 28 28 29 30 30 31 31 32 32 33 33 34 34 33 31 31 31 31 32 32 32 31 30 29 28 27 26 25 25 25 26 27 27 28 29 30 31 31 32
5 6 5 6 5 4 3 3 6 9 9 8 7 7 6 6 5 6 7 6 5 4 4 5 6 8 10 9 9 11 13 13 15 17 19 21 20 20 23 23 24 25 25 26 26 27 29 29 30 31 31 32 32 33 34 34 34 35 34 34 33 32 32 31 31 31 31 31 30 29 28 27 27 26 26 25 25 25 26 27 28 28 29 30 30 30
5 5 3 5 3 3 3 3 5 8 7 5 6 8 5 5 8 8 7 6 5 5 7 7 6 8 10 12 14 14 14 14 15 17 20 22 20 19 21 22 22 23 24 24 25 27 28 28 29 30 31 32 33 34 34 34 34 34 34 33 32 32 32 31 31 30 30 29 28 27 27 26 26 26 27 27 27 27 27 27 28 28 29 29 30 30
5 4 2 3 3 4 3 2 4 7 5 2 4 7 5 6 8 7 6 7 6 7 8 9 10 11 10 13 16 15 14 16 16 18 21 21 20 19 19 20 21 23 24 23 24 26 27 27 28 29 30 31 31 32 33 33 33 33 32 32 32 31 31 31 31 30 30 29 28 28 27 26 26 26 27 28 30 31 31 31 30 30 30 30 30 29
6 5 2 3 4 4 3 3 4 7 6 4 4 5 5 5 7 8 7 7 9 9 8 11 14 13 11 15 17 14 14 17 18 22 24 22 19 19 19 19 21 23 24 23 23 26 27 27 27 27 27 28 28 29 30 31 31 31 31 30 30 31 31 31 30 30 30 30 29 29 28 27 26 27 28 29 31 33 34 34 33 32 31 31 31 30
6 5 4 2 4 4 3 3 4 5 5 4 3 5 6 6 6 8 7 8 11 10 11 14 14 12 12 15 18 17 18 20 19 22 23 22 19 18 17 19 22 23 23 22 23 25 26 25 25 24 24 24 25 26 28 28 29 29 29 30 30 31 31 31 30 30 30 30 30 29 28 28 28 29 30 31 33 34 34 35 34 32 30 30 31 31
6 5 4 3 2 3 2 3 3 5 5 3 4 5 5 5 6 7 6 9 11 10 11 11 10 12 15 16 18 19 20 20 18 20 21 23 25 22 18 18 23 25 24 22 22 22 22 22 22 22 22 24 24 25 27 27 28 28 29 30 31 31 31 31 30 30 30 29 29 29 29 30 30 31 32 33 34 34 34 34 33 31 28 28 30 31
6 6 4 3 1 1 3 3 2 4 5 4 3 4 5 5 6 6 7 10 11 10 12 12 12 16 17 17 19 20 20 20 19 21 22 26 27 25 23 22 24 27 25 22 21 21 22 22 22 23 24 25 25 26 27 28 29 29 30 31 32 32 32 32 32 31 30 30 30 30 31 32 33 33 34 35 36 34 33 32 31 29 27 27 29 31
4 5 4 2 1 1 4 4 3 3 5 5 3 4 5 6 7 7 8 11 11 11 13 14 14 15 15 15 17 19 22 22 22 22 24 26 24 26 29 27 26 28 26 24 23 23 23 23 23 24 25 26 26 27 28 29 30 30 31 32 32 33 33 33 33 33 32 32 31 31 33 33 34 34 35 36 35 33 31 29 28 27 25 25 27 29
3 4 4 1 0 1 3 4 2 2 5 6 4 4 6 7 8 8 9 12 11 10 12 13 12 13 14 13 14 18 21 24 25 24 26 27 25 28 30 28 27 26 22 23 23 23 25 25 25 25 25 26 27 28 29 29 30 31 32 33 33 34 34 35 35 35 34 34 33 34 34 34 34 35 36 36 34 31 28 26 26 26 24 23 24 27
1 3 3 0 1 2 4 4 4 4 4 5 5 4 5 6 6 7 8 9 9 8 11 12 11 12 14 13 15 17 17 21 25 26 26 25 26 29 28 27 28 24 20 21 20 20 23 24 25 26 26 27 28 29 29 30 31 32 32 33 34 34 35 35 35 35 35 35 35 35 35 35 35 35 35 35 32 28 26 24 24 24 22 22 23 24
2 0 1 1 2 3 5 5 6 6 4 3 4 4 4 4 4 6 7 7 8 8 9 10 11 13 17 17 16 16 16 19 23 24 24 23 23 26 26 26 26 22 20 21 18 18 20 21 23 24 25 27 28 28 29 28 29 30 30 31 32 32 32 32 32 32 32 33 33 33 33 33 33 33 34 33 29 25 23 22 23 23 22 22 22 22
4 2 2 2 2 3 5 5 6 6 5 4 3 2 3 4 6 7 8 8 10 9 8 9 9 11 16 18 16 15 15 18 21 23 22 21 21 22 23 23 23 20 19 19 17 17 18 19 20 22 24 24 24 24 25 25 26 26 27 28 28 28 28 28 29 28 28 29 30 29 28 28 29 30 30 29 26 23 21 20 21 22 22 21 22 22
6 5 4 3 4 4 4 5 5 5 6 7 5 3 3 5 7 8 8 8 10 10 9 8 9 10 14 16 16 16 15 16 20 22 21 20 21 20 19 20 20 18 16 15 14 15 16 18 19 20 21 21 20 21 22 23 23 23 24 24 24 24 24 25 25 25 25 26 26 25 24 24 25 25 25 25 24 22 21 20 19 20 20 20 21 21
7 8 6 4 5 6 5 5 6 5 6 8 7 7 7 7 8 8 8 8 10 11 10 9 9 11 15 16 16 17 17 16 19 21 20 20 21 20 17 17 17 15 14 14 14 13 14 17 18 19 20 19 20 20 20 21 21 20 21 21 21 21 21 21 22 22 21 22 22 21 20 20 20 20 21 21 21 20 20 19 19 18 19 19 19 19
9 9 9 7 7 7 6 7 8 8 8 8 9 9 8 9 10 9 9 9 10 11 12 11 10 12 16 17 15 16 17 16 18 20 19 19 20 19 18 16 15 14 13 13 14 14 14 16 18 18 18 18 18 19 18 18 18 18 18 19 19 19 19 18 18 17 17 17 16 16 15 16 16 17 17 18 18 18 18 17 18 18 18 17 17 17
11 12 11 9 8 8 9 9 9 10 11 10 11 11 9 10 12 11 10 11 12 11 12 13 13 14 17 17 17 18 18 17 19 20 19 19 20 18 18 17 15 14 15 14 14 14 14 16 17 17 16 17 17 17 17 16 17 17 17 17 18 17 17 16 14 14 13 12 11 11 11 12 12 13 14 14 15 15 16 16 16 17 17 17 17 16
13 14 14 13 12 12 12 10 10 12 13 12 12 12 11 12 13 13 12 13 14 13 13 14 15 15 16 15 15 17 18 19 20 20 19 19 19 19 18 17 16 15 16 15 15 15 15 15 16 16 16 16 16 17 17 17 17 17 17 17 17 17 16 15 13 13 12 11 10 9 9 9 10 11 11 12 13 14 15 15 16 16 17 17 18 17
13 15 15 15 14 15 15 13 13 14 14 14 14 14 14 14 14 14 14 15 15 15 15 16 16 18 19 16 14 17 19 19 20 20 20 19 19 19 18 17 16 16 16 15 15 15 15 15 16 16 16 16 16 16 16 17 16 17 16 16 16 16 15 14 13 13 12 11 11 10 9 9 9 10 11 12 13 14 15 16 16 17 17 17 18 18
16 16 15 15 16 16 15 15 16 17 16 16 17 17 16 16 16 16 16 17 18 16 17 18 17 19 21 19 18 20 21 21 21 20 20 19 19 19 18 18 17 16 16 15 15 15 14 14 14 15 15 14 15 14 15 16 16 16 15 15 15 15 15 14 13 13 12 12 11 11 11 10 9 9 10 11 13 14 16 17 17 18 18 18 18 19
17 17 15 15 17 16 13 13 17 17 15 15 17 18 18 19 19 19 19 20 20 18 19 20 20 21 23 23 23 22 19 20 21 20 19 20 19 18 19 19 18 18 17 16 16 14 14 13 13 13 14 13 13 13 13 14 14 14 14 13 13 14 13 13 12 12 12 11 11 11 11 11 10 10 10 10 11 12 14 15 16 17 18 18 17 18
18 19 18 17 18 17 16 18 21 19 16 16 17 18 18 19 20 20 21 21 21 21 21 20 21 24 24 24 24 23 21 20 21 21 21 21 19 19 19 20 20 20 18 18 17 15 14 14 13 13 13 13 13 13 12 12 12 12 12 12 11 12 12 11 11 11 11 11 11 10 10 10 10 10 10 10 10 11 11 12 13 14 15 15 15 15
19 20 20 20 19 18 19 21 23 22 20 21 21 20 20 21 21 22 22 21 23 24 22 21 23 25 24 24 26 28 28 25 23 23 22 22 22 20 20 21 21 20 19 18 18 17 15 14 14 14 13 13 13 13 12 12 11 11 11 11 11 11 10 10 10 10 10 11 11 10 10 10 10 10 10 10 10 10 11 11 12 12 13 13 13 14
21 20 21 22 21 20 19 20 23 24 23 24 24 24 24 25 25 26 26 24 25 27 24 22 25 26 25 26 27 28 29 27 25 24 24 24 25 24 22 23 22 21 20 19 18 17 17 16 15 15 14 14 14 14 13 12 12 12 11 11 11 11 11 11 11 10 11 11 10 10 10 10 10 10 10 10 10 10 10 11 11 12 12 12 12 13
22 21 22 23 23 22 21 21 22 24 25 24 24 24 24 25 26 26 26 26 27 28 26 24 26 26 25 27 28 28 28 27 27 26 26 26 26 25 25 25 24 23 22 21 20 18 17 17 17 16 16 16 15 15 14 14 13 13 12 12 12 12 12 12 12 11 11 11 11 11 10 10 10 10 9 9 9 9 9 10 10 10 10 10 10 11
23 23 23 24 25 23 22 23 24 25 26 24 22 22 23 24 25 24 24 25 26 26 24 25 26 24 24 26 28 28 28 27 26 26 26 25 24 24 25 26 26 26 25 25 23 20 18 18 18 18 18 18 17 17 16 15 14 14 13 13 13 13 13 13 13 13 12 13 12 12 11 10 10 10 9 9 9 9 9 9 9 9 9 9 8 8
23 24 25 26 27 24 23 25 26 27 28 25 21 21 23 23 24 23 23 23 24 23 23 24 23 22 23 26 27 27 27 26 25 25 25 25 24 24 24 25 25 26 26 26 24 22 19 18 20 20 20 20 19 19 18 17 16 15 14 14 14 14 14 14 14 14 14 14 13 13 12 11 11 10 10 9 9 8 8 8 8 8 8 8 8 7
22 24 25 27 28 26 24 26 28 30 29 25 22 24 23 23 24 24 23 23 23 23 23 23 22 22 23 25 25 26 26 25 24 24 25 25 24 23 23 24 24 24 25 26 26 24 20 19 21 21 21 22 21 20 20 19 18 17 16 16 15 15 15 14 15 15 14 14 14 13 13 12 12 11 10 10 9 9 8 8 8 8 8 8 8 7
21 22 23 26 27 25 25 27 30 32 29 24 26 28 24 22 24 25 25 25 25 25 24 23 22 23 24 25 25 25 26 25 25 26 25 25 25 24 24 24 24 24 25 26 28 26 22 20 22 23 23 23 22 21 21 20 19 18 17 17 16 16 15 15 15 15 15 15 14 14 13 13 12 11 10 10 9 9 9 8 8 8 8 8 8 8
21 21 22 23 25 25 25 27 30 31 28 25 29 30 25 22 25 26 25 25 26 26 25 24 23 23 24 24 25 26 26 26 26 25 24 24 25 24 23 24 24 24 25 27 27 25 22 21 23 24 23 23 22 21 21 20 19 19 18 18 17 16 16 15 15 15 15 15 15 14 13 13 12 11 10 9 9 9 9 9 9 8 8 8 7 7
20 21 21 22 23 23 24 26 27 27 26 26 29 31 28 25 26 28 27 26 27 27 25 24 23 23 24 25 25 25 25 24 24 23 22 22 22 22 22 22 23 23 25 27 26 23 21 22 23 23 22 22 21 21 21 20 19 18 18 18 17 16 16 16 15 15 15 15 14 13 13 12 11 10 10 9 9 9 9 8 8 8 7 7 6 6
19 20 21 21 22 22 23 24 25 25 24 24 27 30 30 27 27 27 26 24 26 27 26 25 24 24 23 23 23 23 22 22 22 23 23 21 20 21 20 20 22 22 23 25 25 23 23 23 22 22 22 21 21 21 20 19 18 18 18 17 17 16 16 15 15 15 14 14 13 12 12 11 11 10 9 8 8 8 8 8 7 7 6 6 5 5
18 18 20 21 20 21 23 23 23 23 22 22 24 26 26 26 27 27 25 24 26 28 27 27 26 24 22 22 23 24 23 22 22 22 21 20 19 20 21 20 21 22 23 24 24 24 25 24 22 22 22 21 21 21 20 19 18 18 17 17 16 16 15 15 14 14 13 12 11 11 10 10 10 9 8 8 8 8 7 7 7 6 5 5 4 4
19 18 19 20 19 20 23 23 22 22 20 20 24 25 22 22 25 26 25 26 28 29 28 25 23 22 22 22 23 24 23 23 23 21 20 20 19 19 21 21 20 22 23 23 23 24 25 24 23 22 21 21 20 20 19 19 18 17 16 16 15 15 14 14 13 12 12 11 10 9 9 9 9 8 8 8 7 7 7 6 6 5 5 4 4 4
21 20 21 21 19 20 22 23 22 21 19 20 23 24 23 22 22 24 25 27 29 30 28 25 22 22 22 21 20 21 21 22 24 21 20 21 21 20 21 21 21 22 23 21 21 23 23 22 22 21 20 20 19 19 19 18 17 16 15 15 14 14 13 13 12 11 11 10 9 8 8 8 8 7 7 7 6 6 6 6 6 5 4 4 5 5
21 21 22 23 22 21 23 24 22 19 18 20 23 24 25 23 21 21 24 26 27 26 25 24 23 22 21 20 19 21 21 21 22 21 20 22 22 21 22 22 21 22 22 20 20 21 20 20 20 19 19 18 19 18 18 17 16 15 14 13 13 13 12 12 12 11 10 9 8 8 7 7 7 7 6 6 6 6 6 6 5 5 5 5 6 6
22 21 22 21 21 23 25 25 23 19 17 19 22 24 25 22 19 21 23 22 23 24 24 25 24 23 22 20 20 22 22 21 21 22 22 22 21 21 22 21 21 22 21 20 20 19 19 18 18 17 17 18 18 17 17 16 15 14 13 13 12 12 12 12 12 11 10 9 8 7 7 7 6 6 6 6 6 6 6 6 5 6 6 6 7 8
25 24 23 22 23 24 24 23 22 20 19 19 20 23 26 24 20 22 23 21 22 25 26 26 26 25 24 20 19 21 22 22 22 22 23 22 21 20 20 20 20 21 20 19 19 18 17 17 16 16 16 16 16 16 15 14 14 13 13 12 12 12 12 12 12 11 10 8 7 7 6 6 6 6 7 7 7 6 6 6 6 7 7 8 8 10
25 25 26 26 26 25 24 22 21 21 22 21 18 20 25 26 22 21 23 24 24 26 27 28 27 26 25 22 20 20 22 23 24 23 23 22 20 19 19 19 20 21 20 19 18 17 16 15 16 15 15 16 16 15 14 14 13 13 12 12 12 12 11 11 11 10 9 8 7 6 7 7 7 7 7 7 7 7 7 7 7 8 8 9 10 11
26 25 26 26 26 27 27 26 23 23 23 23 20 19 23 26 26 24 25 27 28 28 29 29 29 29 29 26 23 22 23 24 26 25 24 23 22 20 19 19 19 20 19 18 18 16 15 14 15 15 15 15 15 15 14 13 13 12 12 12 11 11 10 10 9 9 8 7 7 7 7 8 8 8 8 8 8 8 8 8 9 9 10 11 12 13
26 26 27 26 26 28 29 27 26 25 25 25 25 24 23 26 28 27 28 29 29 30 30 30 30 30 31 29 26 24 24 25 26 25 24 23 23 22 20 19 19 19 18 17 17 16 15 14 14 15 15 15 15 14 14 13 12 12 12 11 11 10 9 9 9 8 8 7 7 8 8 9 9 9 9 9 9 9 9 10 10 11 12 13 14 15
27 28 28 27 27 29 28 26 27 28 26 25 26 26 26 26 27 27 28 29 30 32 31 30 30 30 31 30 27 24 25 26 26 25 24 23 23 23 22 20 19 20 18 16 16 16 15 14 14 14 15 15 14 14 14 13 12 12 12 11 11 10 9 9 9 9 9 9 9 9 9 10 10 10 10 10 11 11 11 12 13 13 14 15 16 17
29 29 28 28 30 31 29 26 27 28 26 26 27 27 27 28 27 27 28 28 29 30 30 29 30 30 29 29 27 25 25 26 26 25 25 24 23 23 23 21 19 20 19 16 15 16 16 15 15 15 15 15 14 14 14 13 12 12 12 11 11 11 10 10 10 10 10 10 10 10 10 11 11 12 12 12 13 13 14 14 15 16 16 17 18 18
32 31 29 32 35 34 30 28 29 28 25 24 26 27 28 29 29 28 27 27 27 28 27 27 28 29 28 28 27 26 26 26 25 25 25 24 23 23 23 22 21 20 19 17 16 16 16 15 15 15 15 16 15 15 14 13 13 12 12 12 12 12 11 11 11 11 11 11 11 11 12 12 13 13 14 15 15 16 16 17 18 18 18 19 19 20
35 34 33 35 37 35 31 30 32 31 27 24 25 27 28 29 28 28 27 27 28 28 27 27 27 27 27 27 26 26 26 25 24 24 25 25 24 23 23 23 22 21 20 18 16 16 17 17 17 17 17 17 16 15 15 14 14 13 13 13 13 13 13 13 13 13 13 13 13 13 13 14 15 15 16 17 18 19 19 19 20 21 21 22 22 23
38 38 36 37 38 35 32 31 33 32 29 27 26 27 27 28 28 27 27 28 28 29 30 30 29 28 27 26 26 27 27 26 24 24 24 24 24 24 24 23 22 22 22 20 18 17 18 18 18 18 18 18 18 17 16 15 15 15 15 14 15 15 15 15 15 15 15 14 15 15 15 16 17 17 18 19 20 21 22 22 23 23 23 24 24 25
Wind_Direction
6 7 7 27 35 357 303 315 309 282 317 11 260 200 184 178 200 202 212 249 252 252 242 238 244 250 250 248 245 242 243 246 251 251 249 253 257 261 265 265 259 260 268 274 277 278 278 280 280 281 281 283 285 287 291 293 293 294 294 293 292 291 291 292 293 293 291 289 287 287 287 289 290 290 287 285 283 282 279 276 274 274 273 270 266 261
351 354 323 337 241 267 273 294 272 253 257 3 48 181 185 220 222 215 236 243 225 163 239 257 246 238 236 236 236 234 235 237 240 239 239 246 254 261 264 270 272 267 264 267 272 275 276 278 279 280 282 283 285 287 289 290 290 289 288 289 290 291 291 291 292 293 292 291 288 286 287 288 291 291 291 289 286 284 281 278 274 272 271 269 266 262
310 314 335 341 280 267 242 250 229 240 262 307 34 152 178 340 269 213 246 233 209 172 196 240 219 196 205 207 210 214 218 224 229 235 244 249 251 259 265 272 277 278 276 270 269 272 274 276 278 280 282 284 285 285 286 287 287 287 286 287 288 289 289 290 291 292 292 291 289 286 285 285 287 288 288 288 287 285 283 281 277 272 270 268 265 262
309 295 335 335 305 266 232 243 180 171 260 289 344 336 329 279 224 253 284 207 223 182 188 214 195 190 190 192 206 212 220 229 239 244 250 256 257 263 268 271 276 283 285 283 280 278 278 279 280 281 282 282 284 284 285 287 287 288 287 287 286 286 288 290 291 292 292 292 290 288 286 285 285 285 285 285 286 285 283 282 280 276 271 267 265 262
319 308 319 313 275 234 221 213 126 115 227 253 255 265 242 223 230 275 260 217 239 201 196 220 216 212 196 203 224 227 238 244 248 253 257 264 266 269 270 271 277 282 286 287 287 285 283 282 283 283 283 283 284 284 285 286 287 287 288 288 288 288 289 289 290 290 291 291 291 290 289 288 287 285 284 284 285 285 284 281 280 279 275 270 266 262
318 316 305 279 247 226 211 156 140 133 157 235 227 199 222 233 244 254 230 255 252 226 241 243 260 250 213 218 243 239 245 250 253 258 262 267 270 271 272 274 277 279 281 283 284 285 284 283 284 285 285 284 283 283 284 285 286 286 286 288 289 289 289 288 288 289 290 290 289 289 288 288 288 288 286 285 285 286 286 284 281 279 278 275 270 264
315 323 298 265 247 222 222 201 170 158 174 210 214 204 211 215 213 214 223 249 245 234 249 244 268 263 232 241 267 256 250 255 262 266 265 267 268 268 270 273 275 276 276 278 279 279 279 280 282 284 285 285 284 284 284 284 285 285 285 287 288 288 287 286 287 288 289 289 287 286 285 286 288 289 289 288 287 286 285 285 283 281 279 277 273 268
320 326 301 276 255 223 242 228 187 188 198 188 192 217 220 207 223 233 235 241 250 261 262 261 270 263 255 268 275 266 262 268 275 276 270 267 264 263 268 271 272 274 272 272 275 275 275 278 280 282 284 284 284 284 284 284 284 284 285 286 287 286 285 286 286 287 289 288 287 285 284 285 286 287 289 289 288 287 285 282 281 281 279 277 275 271
344 340 306 270 240 224 230 223 196 201 222 245 214 222 229 225 233 245 235 230 254 257 252 265 270 264 264 269 269 267 274 284 287 286 276 269 266 264 267 273 275 276 273 272 278 280 279 279 279 280 280 281 281 281 282 282 283 284 285 286 286 286 286 287 287 288 288 287 286 285 284 283 284 285 286 287 288 288 286 284 280 277 276 275 274 272
8 359 332 252 245 262 242 232 233 214 227 268 238 218 228 231 235 251 247 243 260 261 264 274 270 268 263 264 273 281 288 288 290 293 279 262 265 271 272 280 282 282 280 279 285 285 280 278 279 278 278 279 279 279 279 280 281 283 284 286 287 288 289 289 289 289 289 288 286 284 283 282 282 284 285 287 290 292 290 287 282 276 271 271 272 271
15 11 3 283 257 293 286 253 250 225 239 273 239 217 227 225 229 244 246 253 266 273 280 274 263 265 268 271 279 283 283 281 286 297 280 257 264 275 278 285 285 284 285 285 289 286 276 273 276 277 278 278 278 278 278 279 281 282 284 287 288 289 290 290 291 291 290 288 286 283 282 281 282 285 288 292 294 295 293 289 284 278 269 265 266 268
19 20 14 358 285 276 256 248 232 212 230 257 234 230 241 239 239 248 250 256 266 272 276 274 269 276 282 285 284 281 281 280 283 295 288 277 278 271 271 286 284 283 285 284 288 286 275 270 273 275 277 278 278 278 278 279 281 283 285 287 288 288 289 289 291 291 290 288 285 282 281 282 284 288 292 296 298 297 293 288 285 280 271 263 261 263
27 23 22 23 346 240 193 175 165 198 225 238 234 252 276 270 251 258 270 266 264 269 281 291 286 281 283 287 290 289 285 283 287 296 294 289 281 269 279 295 288 284 285 281 280 280 275 272 273 277 279 279 280 279 279 280 282 285 286 286 287 287 288 289 290 291 290 288 284 282 281 282 286 289 293 296 298 296 292 288 285 280 272 264 259 259
33 26 28 30 20 182 186 168 142 180 212 212 215 243 263 263 246 250 275 280 278 283 292 293 288 287 285 287 296 297 295 297 300 302 297 290 281 278 293 302 292 286 286 280 275 274 275 274 274 278 279 279 280 279 279 280 282 284 284 285 286 287 287 289 290 290 289 288 285 282 282 283 285 288 291 295 296 293 291 288 285 280 275 267 261 259
27 31 31 19 46 160 199 202 184 188 201 206 218 239 254 263 260 263 278 282 281 288 294 293 294 292 285 293 310 309 310 312 307 305 302 298 295 293 301 304 294 288 287 281 275 271 272 274 274 276 277 278 278 278 278 280 281 282 283 285 286 286 287 288 289 289 288 287 285 283 282 283 284 285 288 291 292 291 290 288 284 281 278 271 264 260
32 28 27 95 169 181 201 210 215 212 208 216 222 237 262 274 275 279 289 289 285 291 301 307 314 307 296 308 317 308 309 311 306 308 310 307 303 300 303 301 293 289 286 281 276 270 271 273 273 275 275 276 277 277 278 280 282 283 284 286 286 287 288 288 288 287 286 286 284 282 282 281 281 283 285 287 289 288 288 287 284 282 279 274 269 265
214 185 50 122 153 184 190 193 205 209 214 225 224 236 265 279 279 282 295 303 300 306 316 321 325 315 303 303 305 305 312 312 308 312 313 311 307 303 305 301 293 290 285 280 277 273 272 273 275 275 274 275 277 279 281 283 284 285 286 287 287 287 288 287 287 286 284 284 282 281 280 279 278 279 281 283 284 284 285 284 283 283 281 277 273 271
238 217 188 170 173 199 188 181 197 208 210 216 222 239 273 291 292 289 295 302 302 306 312 313 313 306 299 301 305 310 318 315 311 314 315 315 315 314 314 308 299 294 287 281 278 277 278 278 278 278 276 278 282 285 286 286 286 287 287 288 288 288 288 287 286 285 282 280 280 279 278 275 274 274 277 280 282 282 281 279 279 280 281 281 278 278
242 240 230 197 197 212 195 183 190 203 213 223 236 247 256 275 283 284 289 299 301 299 298 299 303 301 296 300 309 315 322 322 318 318 317 316 322 327 326 317 309 303 294 287 284 282 285 283 281 282 284 286 289 289 289 288 288 288 288 288 288 288 288 288 288 286 282 278 277 277 273 269 269 271 274 278 280 279 277 276 276 277 279 281 282 283
238 240 250 243 224 222 213 205 205 209 220 229 238 248 248 253 265 273 280 287 290 290 290 291 295 295 291 296 309 316 320 321 318 318 319 317 321 329 333 327 320 316 305 296 292 290 290 289 288 290 293 294 293 291 291 290 290 289 289 290 290 291 292 292 292 290 284 278 276 274 270 267 267 269 272 275 275 273 273 273 274 275 277 278 280 282
239 233 242 251 250 245 230 224 226 228 236 240 237 240 247 251 254 259 269 278 281 284 287 286 284 286 288 295 307 310 310 313 315 318 320 316 315 321 330 331 326 323 315 301 296 296 294 292 294 297 299 298 297 296 295 293 293 293 294 295 296 297 298 298 299 296 289 281 276 273 271 268 268 269 270 272 271 269 268 269 271 273 275 276 277 278
248 241 239 240 245 251 247 248 253 250 251 255 247 243 252 258 258 260 266 270 270 273 280 283 285 284 284 293 304 305 306 311 314 317 315 311 310 312 321 327 325 322 318 310 305 303 300 298 298 301 302 302 302 301 299 299 299 299 300 301 301 301 301 303 308 309 302 294 287 281 278 275 272 272 273 274 274 271 270 269 269 271 272 274 276 277
254 250 244 238 238 245 252 261 272 268 261 257 254 255 260 259 258 261 264 266 268 275 281 285 289 287 284 290 296 295 299 306 311 314 311 307 306 306 311 319 321 318 316 314 311 309 308 305 303 304 303 302 303 302 301 302 301 301 302 302 302 303 303 307 315 318 318 317 313 305 297 288 281 278 278 279 280 280 278 277 275 274 274 275 277 279
262 255 250 247 244 247 251 257 262 260 255 253 254 256 258 257 257 261 265 268 272 276 278 281 286 286 286 289 287 285 291 299 304 308 308 306 303 302 304 308 312 314 313 313 312 311 309 307 304 304 304 302 301 300 299 300 299 300 301 301 302 303 305 309 315 319 322 324 326 324 318 308 297 288 283 281 282 282 282 282 281 280 279 279 281 282
264 261 260 259 255 253 257 261 259 255 252 254 257 258 258 259 259 261 265 269 272 275 274 276 279 281 285 288 285 283 288 294 299 303 305 305 305 302 301 301 304 307 308 309 310 309 308 308 307 307 307 306 304 302 300 300 300 299 299 300 302 302 304 309 315 318 321 324 326 326 324 321 313 304 296 289 285 282 281 281 281 281 281 282 283 283
267 268 267 264 262 260 258 259 259 260 259 257 257 260 261 261 261 262 264 268 272 274 273 275 276 276 280 284 285 285 286 290 295 298 300 303 304 303 302 302 301 301 302 304 307 310 312 312 311 310 309 309 308 306 304 302 301 301 300 301 302 303 306 310 316 321 323 325 327 327 326 322 318 314 309 303 297 292 288 285 283 282 282 282 283 283
268 269 268 266 266 265 262 260 261 263 265 260 257 260 262 262 262 262 263 267 271 271 272 277 278 278 281 285 288 289 288 289 292 294 297 299 299 299 299 300 299 298 300 304 309 314 315 311 309 309 308 308 307 307 305 303 303 302 302 303 302 304 308 313 320 325 325 326 329 330 329 325 321 319 315 312 309 306 303 299 296 293 290 288 287 286
268 269 271 270 267 266 265 266 267 265 265 264 264 264 264 263 264 265 267 269 271 272 274 277 277 278 281 284 286 288 290 293 293 292 293 295 295 295 295 297 298 298 298 302 307 310 309 307 308 308 307 306 305 305 303 302 303 303 302 303 303 304 309 313 319 322 323 324 326 327 330 329 326 325 323 321 319 316 314 312 309 307 303 298 293 289
268 269 271 271 270 269 266 267 269 269 267 266 266 266 266 266 267 269 271 271 271 274 279 278 276 277 280 281 282 284 288 291 292 292 293 293 292 291 291 292 294 294 295 297 298 300 302 304 306 307 307 306 305 304 303 301 301 301 301 301 302 303 306 308 311 314 315 316 318 320 324 325 325 325 325 326 326 325 323 321 318 314 310 304 299 292
269 269 268 269 269 269 268 267 268 269 269 267 267 268 268 269 270 270 272 274 274 277 280 278 276 278 281 281 281 282 284 287 290 291 293 292 290 288 286 287 289 289 290 290 289 291 295 298 301 303 303 303 303 303 303 302 301 300 299 299 299 300 301 302 304 306 307 308 311 313 315 317 318 319 321 322 322 323 324 324 323 320 315 310 303 297
274 270 268 269 268 267 268 268 267 268 270 271 272 272 271 271 272 273 275 275 276 278 279 277 277 281 282 280 280 281 283 286 288 288 289 290 289 286 285 285 286 287 288 288 287 288 289 292 295 297 297 298 299 300 300 300 299 299 298 297 297 296 297 297 298 299 300 301 303 305 307 308 308 310 313 315 315 317 318 321 322 321 320 317 312 308
278 275 273 272 270 269 268 269 270 270 270 272 274 272 270 271 274 275 275 276 277 278 277 277 280 282 279 278 280 283 285 286 287 286 286 287 286 286 286 285 285 287 289 290 289 287 287 288 290 292 293 293 294 295 296 296 296 296 296 295 295 295 295 295 295 295 296 296 297 298 299 300 299 300 303 305 308 311 311 312 314 314 313 312 312 312
282 280 279 277 275 274 270 270 272 271 272 277 276 269 269 274 275 274 275 277 278 278 278 280 283 283 279 280 282 283 285 288 287 286 286 285 284 284 283 282 283 285 287 289 288 287 286 286 286 289 290 290 291 292 291 292 292 292 292 292 292 292 293 293 294 294 294 294 294 295 295 295 294 293 293 294 296 299 301 303 304 303 303 302 302 304
285 282 280 280 282 281 276 273 272 272 276 282 278 273 273 276 275 275 277 279 279 279 280 282 283 282 282 283 283 283 285 287 285 285 285 284 283 283 281 280 282 283 284 285 285 286 288 287 284 285 288 289 289 288 287 288 288 289 289 290 290 290 291 292 293 293 293 292 292 292 292 291 290 289 289 290 289 288 289 292 294 295 295 295 295 297
289 286 284 283 285 286 282 277 275 277 279 279 277 278 279 276 275 278 279 280 280 280 282 283 284 283 284 284 284 284 283 282 282 284 284 283 283 283 282 281 282 283 284 282 281 284 288 285 282 283 286 288 288 286 285 285 285 286 287 287 288 289 290 291 293 293 293 292 291 290 289 288 288 288 288 287 286 284 283 284 287 290 291 291 292 294
291 291 291 290 290 290 286 282 282 284 284 280 278 281 281 277 277 279 279 279 280 280 281 282 282 283 284 284 283 282 282 283 284 284 282 281 283 284 284 283 283 283 282 281 283 287 287 282 280 282 285 286 286 284 283 283 283 284 285 286 287 288 289 290 292 292 292 291 290 289 288 287 286 286 286 286 284 281 279 280 283 285 288 290 293 297
294 294 296 297 296 295 293 290 289 289 288 284 282 281 282 282 281 280 279 280 280 281 281 281 282 284 283 281 281 281 283 286 285 281 279 280 283 286 287 286 286 285 282 282 288 290 287 283 283 283 284 284 284 283 282 282 282 283 284 285 287 288 289 290 290 290 289 289 288 288 287 287 286 284 283 283 281 278 277 277 279 282 286 291 298 306
293 296 297 299 301 300 298 296 294 294 295 293 287 283 282 282 281 281 283 284 282 281 282 283 285 284 279 276 278 281 284 284 280 279 282 283 282 283 286 288 288 287 285 286 289 288 285 286 286 285 285 285 283 283 282 282 282 282 283 284 286 287 288 288 288 288 287 285 286 287 288 287 285 283 282 279 276 274 274 273 275 281 287 292 301 311
294 296 295 297 301 301 298 299 300 300 301 296 291 290 289 282 279 282 285 284 282 282 283 285 285 282 278 277 277 278 278 277 276 279 285 287 286 286 288 290 289 286 285 287 286 283 284 286 286 285 285 285 284 283 283 282 282 281 281 282 284 285 286 287 287 285 282 282 284 286 287 285 281 279 276 273 271 269 268 271 275 278 282 288 298 308
295 297 296 296 298 297 295 297 300 304 307 300 293 294 293 287 284 284 283 282 282 284 287 286 282 279 279 279 277 274 272 272 275 278 280 282 287 290 290 290 288 284 284 286 283 282 284 285 284 285 285 285 285 284 283 282 281 279 279 280 281 283 284 285 283 281 279 279 281 282 281 278 274 272 269 265 262 262 264 267 268 269 275 286 295 301
291 293 293 294 296 294 292 292 295 303 308 302 296 294 292 293 293 287 279 278 281 284 287 286 283 280 278 276 273 272 271 270 274 277 276 278 283 287 288 289 286 284 285 286 283 283 286 285 284 285 285 285 285 284 282 281 279 278 278 279 280 281 281 280 278 276 275 275 276 276 273 270 268 264 259 253 250 254 257 258 260 267 278 286 290 296
290 289 288 290 293 292 291 293 299 304 301 294 294 295 295 299 300 290 283 281 280 281 284 285 285 284 281 277 274 274 274 273 275 278 279 280 281 283 285 286 284 283 284 284 283 285 286 286 286 286 285 284 283 282 281 279 277 277 278 278 279 279 279 279 276 273 270 269 269 268 267 264 260 252 245 241 242 246 249 251 259 268 277 284 292 299
291 292 293 293 292 290 290 294 299 302 297 294 295 294 294 298 298 289 286 285 280 280 283 284 284 284 281 277 274 275 276 276 276 277 279 280 279 279 283 285 283 282 282 283 285 287 287 286 287 285 283 281 280 279 279 279 279 279 279 279 279 279 278 277 273 268 264 261 262 262 258 252 245 238 235 237 240 242 246 253 263 270 278 288 296 301
287 291 294 294 294 294 295 297 301 300 297 297 296 291 290 295 294 287 285 285 283 283 284 285 284 282 280 277 274 275 277 278 279 279 279 279 276 275 279 282 281 279 280 283 285 287 287 286 285 282 279 279 279 279 280 280 279 280 280 279 279 278 276 273 268 262 257 255 253 250 243 237 233 232 234 236 239 244 252 261 269 276 284 291 295 299
286 288 289 291 295 297 298 301 304 302 300 301 302 297 292 292 293 289 286 287 287 286 285 285 285 283 280 278 277 277 277 277 277 278 278 278 276 276 279 279 277 275 276 279 281 283 283 281 279 277 276 275 276 277 278 278 279 279 279 279 277 275 270 265 260 256 251 247 242 235 232 231 231 232 235 239 243 250 258 266 274 282 287 291 293 297
286 286 287 289 293 294 295 299 302 301 303 309 312 311 304 298 296 294 289 286 285 284 286 288 288 285 282 280 279 277 275 274 274 275 276 276 276 278 278 277 275 273 270 270 273 277 278 277 274 273 273 272 273 275 276 277 279 279 279 277 274 268 263 258 254 248 242 234 229 229 229 231 234 236 239 243 248 255 262 270 277 282 286 290 293 296
285 284 286 289 289 286 287 292 296 299 306 311 311 311 309 304 300 298 295 292 288 286 288 290 290 287 286 285 281 275 270 270 272 274 274 274 274 276 277 276 274 272 267 263 264 269 272 272 271 271 271 271 271 272 273 275 277 277 276 273 268 262 257 253 247 239 232 227 226 230 234 237 241 244 248 251 255 259 266 272 277 282 286 289 292 295
285 284 287 288 285 282 285 290 293 297 303 307 307 307 305 302 300 298 297 295 292 289 290 291 289 287 286 285 283 278 272 271 272 274 275 274 272 273 275 275 272 269 265 260 258 262 266 268 269 269 270 269 269 269 270 272 273 272 269 266 262 257 252 248 241 234 230 229 231 236 241 245 250 254 257 259 261 265 270 274 277 281 285 288 292 296
284 284 286 285 282 283 289 294 295 296 299 302 303 302 300 299 298 298 297 294 290 287 286 284 284 284 283 281 280 279 275 273 273 273 272 272 270 269 271 273 271 268 266 261 258 260 264 267 268 269 268 268 267 267 268 268 268 265 262 259 256 253 248 243 238 235 234 236 239 243 248 252 256 260 263 265 266 268 272 275 278 282 284 287 291 295
280 280 280 279 281 285 291 294 295 296 298 300 300 298 298 298 298 297 295 290 286 283 281 278 277 278 279 278 277 275 274 274 272 269 266 267 268 267 267 269 271 270 268 264 260 260 262 264 265 267 267 267 267 266 266 266 264 261 258 255 252 249 245 241 238 238 240 243 246 249 253 257 260 263 266 268 270 272 273 276 279 282 285 288 291 294
276 276 276 276 280 284 288 290 291 294 297 300 300 298 298 297 297 297 294 289 285 283 282 280 279 278 277 275 273 271 272 272 269 265 261 261 262 264 265 267 267 267 267 265 262 260 262 262 263 265 266 267 267 266 264 263 262 260 258 255 252 249 246 243 242 242 244 247 251 254 258 262 265 267 268 270 272 274 276 279 281 283 286 288 291 294
Height
5773 5774 5774 5773 5774 5775 5776 5776 5775 5773 5774 5775 5773 5771 5774 5775 5775 5777 5778 5779 5779 5779 5779 5780 5779 5780 5784 5785 5786 5787 5787 5788 5788 5788 5787 5786 5786 5785 5785 5786 5786 5787 5786 5785 5785 5785 5784 5784 5784 5785 5785 5785 5785 5785 5785 5786 5787 5787 5786 5786 5787 5787 5788 5787 5787 5788 5788 5789 5789 5789 5789 5788 5788 5788 5789 5789 5789 5789 5790 5792 5793 5793 5795 5796 5798 5800
5774 5774 5774 5774 5774 5775 5776 5776 5775 5774 5774 5774 5773 5774 5776 5776 5776 5777 5778 5778 5779 5778 5778 5779 5779 5780 5782 5783 5784 5784 5785 5787 5788 5787 5787 5786 5785 5785 5784 5784 5784 5785 5786 5786 5785 5785 5784 5783 5782 5782 5782 5782 5782 5782 5783 5783 5784 5785 5784 5784 5784 5784 5785 5785 5785 5785 5785 5786 5786 5787 5786 5786 5786 5785 5785 5786 5786 5786 5786 5787 5789 5790 5790 5791 5794 5795
5774 5774 5774 5774 5774 5775 5775 5775 5774 5774 5774 5774 5775 5775 5776 5776 5776 5777 5778 5777 5778 5778 5778 5779 5779 5780 5781 5782 5783 5783 5785 5786 5787 5787 5786 5786 5786 5785 5784 5783 5782 5782 5784 5785 5785 5784 5783 5782 5781 5781 5780 5780 5780 5780 5780 5781 5781 5782 5782 5783 5782 5782 5782 5782 5782 5782 5782 5782 5783 5783 5784 5784 5784 5783 5783 5783 5783 5784 5784 5784 5784 5785 5786 5787 5788 5790
5774 5774 5774 5774 5774 5774 5774 5774 5774 5774 5774 5773 5774 5775 5776 5777 5778 5777 5777 5778 5778 5778 5778 5779 5779 5780 5781 5782 5783 5784 5785 5786 5786 5787 5786 5786 5785 5785 5784 5783 5781 5780 5780 5781 5782 5782 5782 5781 5780 5779 5779 5778 5778 5778 5778 5778 5778 5779 5780 5780 5780 5780 5780 5780 5779 5779 5779 5779 5779 5779 5780 5780 5781 5780 5780 5780 5780 5781 5781 5781 5781 5781 5782 5783 5784 5785
5774 5774 5773 5773 5773 5774 5774 5774 5774 5775 5776 5776 5776 5777 5778 5779 5778 5778 5777 5778 5778 5778 5779 5779 5780 5780 5781 5782 5784 5784 5785 5785 5786 5786 5786 5786 5785 5785 5784 5783 5782 5780 5779 5779 5779 5779 5779 5778 5778 5777 5777 5777 5777 5776 5776 5776 5776 5776 5776 5777 5777 5778 5778 5777 5777 5777 5776 5776 5776 5776 5776 5776 5776 5777 5777 5777 5777 5777 5778 5778 5778 5778 5778 5779 5780 5780
5773 5773 5773 5773 5773 5773 5774 5774 5774 5775 5776 5777 5777 5778 5779 5778 5779 5779 5778 5778 5778 5778 5779 5779 5779 5780 5780 5781 5783 5784 5784 5785 5785 5786 5786 5785 5785 5785 5784 5783 5782 5781 5780 5779 5778 5778 5777 5776 5776 5776 5776 5776 5775 5775 5774 5774 5773 5773 5773 5773 5774 5775 5775 5775 5774 5774 5774 5774 5774 5773 5773 5773 5772 5773 5773 5774 5774 5774 5774 5774 5774 5775 5775 5775 5776 5776
5773 5773 5773 5772 5772 5773 5773 5774 5774 5774 5775 5776 5777 5777 5778 5778 5779 5779 5778 5778 5778 5779 5779 5779 5780 5779 5779 5780 5782 5783 5783 5784 5784 5785 5785 5784 5784 5784 5783 5782 5782 5781 5781 5780 5779 5778 5777 5776 5775 5774 5774 5773 5772 5772 5772 5771 5771 5771 5771 5771 5771 5771 5772 5772 5772 5771 5771 5771 5771 5770 5770 5770 5770 5770 5770 5770 5771 5771 5771 5771 5771 5771 5771 5771 5772 5772
5773 5773 5772 5773 5773 5773 5773 5773 5774 5774 5774 5775 5776 5776 5777 5778 5778 5778 5778 5778 5778 5779 5779 5779 5780 5779 5779 5779 5780 5781 5782 5782 5782 5783 5782 5782 5781 5781 5781 5781 5781 5780 5780 5780 5779 5778 5777 5776 5774 5773 5772 5770 5770 5769 5768 5768 5768 5768 5768 5768 5768 5768 5768 5768 5768 5769 5768 5768 5768 5768 5768 5768 5768 5768 5767 5767 5767 5768 5768 5768 5768 5768 5768 5767 5767 5768
5773 5772 5772 5773 5773 5773 5773 5773 5773 5774 5774 5775 5775 5775 5776 5777 5777 5777 5778 5778 5779 5779 5778 5779 5779 5779 5779 5779 5778 5779 5779 5779 5780 5780 5780 5779 5779 5779 5779 5778 5778 5778 5778 5779 5778 5776 5775 5774 5773 5772 5770 5769 5768 5767 5766 5766 5766 5766 5766 5766 5765 5765 5765 5765 5765 5765 5765 5765 5765 5765 5765 5765 5765 5765 5765 5764 5764 5764 5764 5765 5764 5764 5764 5764 5763 5763
5773 5772 5772 5772 5773 5773 5772 5772 5773 5774 5774 5774 5774 5775 5776 5776 5777 5777 5777 5778 5778 5778 5778 5779 5778 5778 5778 5778 5776 5777 5778 5777 5778 5778 5777 5776 5776 5776 5776 5776 5776 5775 5775 5776 5776 5774 5773 5772 5771 5770 5769 5768 5767 5766 5765 5765 5764 5764 5763 5763 5763 5762 5762 5762 5762 5762 5761 5761 5761 5762 5762 5762 5762 5762 5762 5761 5761 5760 5760 5760 5759 5760 5760 5760 5759 5759
5773 5773 5773 5772 5772 5773 5772 5772 5773 5773 5774 5774 5775 5775 5776 5776 5777 5777 5777 5777 5777 5777 5778 5778 5777 5776 5777 5777 5776 5776 5776 5776 5776 5776 5774 5774 5774 5773 5773 5774 5773 5773 5773 5773 5773 5771 5770 5770 5769 5769 5768 5766 5766 5765 5764 5764 5763 5763 5762 5761 5760 5760 5759 5759 5759 5759 5758 5758 5758 5758 5759 5758 5758 5758 5758 5758 5757 5756 5755 5754 5754 5754 5755 5755 5755 5755
5773 5773 5773 5772 5772 5772 5772 5773 5773 5774 5774 5775 5775 5775 5776 5776 5776 5776 5776 5777 5776 5776 5777 5776 5775 5775 5775 5776 5775 5775 5775 5775 5775 5775 5773 5773 5772 5770 5771 5771 5771 5770 5770 5771 5770 5769 5768 5768 5767 5767 5766 5765 5764 5764 5763 5762 5762 5761 5760 5759 5758 5758 5757 5757 5756 5756 5756 5755 5755 5755 5755 5755 5755 5754 5754 5753 5752 5752 5750 5749 5748 5748 5749 5750 5751 5751
5773 5773 5772 5772 5772 5772 5773 5773 5773 5774 5774 5774 5775 5775 5775 5776 5776 5776 5776 5776 5776 5775 5776 5776 5775 5775 5774 5773 5773 5773 5773 5774 5774 5773 5771 5771 5769 5767 5766 5768 5767 5766 5767 5767 5768 5766 5766 5766 5765 5765 5764 5763 5763 5762 5761 5761 5760 5760 5759 5758 5757 5756 5755 5755 5754 5754 5753 5753 5753 5752 5752 5752 5751 5751 5750 5749 5748 5747 5746 5744 5743 5743 5744 5745 5746 5746
5773 5773 5773 5772 5773 5773 5773 5773 5773 5773 5774 5774 5775 5775 5775 5775 5775 5775 5775 5776 5776 5776 5776 5775 5775 5775 5774 5773 5772 5771 5770 5770 5770 5770 5768 5768 5767 5764 5762 5763 5762 5762 5763 5763 5764 5764 5763 5763 5763 5762 5762 5761 5760 5760 5759 5759 5758 5757 5756 5755 5754 5754 5753 5752 5752 5751 5750 5750 5750 5749 5749 5748 5748 5748 5747 5746 5745 5743 5741 5740 5739 5739 5740 5741 5742 5743
5774 5773 5773 5773 5773 5773 5773 5773 5773 5773 5774 5774 5774 5774 5774 5774 5774 5774 5775 5775 5775 5775 5775 5774 5774 5774 5773 5772 5771 5770 5768 5766 5765 5766 5766 5764 5763 5761 5759 5759 5758 5758 5759 5759 5760 5760 5760 5760 5760 5759 5759 5758 5758 5757 5757 5757 5756 5755 5754 5753 5752 5751 5750 5749 5749 5748 5747 5747 5747 5746 5746 5745 5745 5744 5743 5743 5742 5740 5738 5737 5736 5736 5736 5737 5738 5739
5774 5773 5773 5773 5773 5773 5773 5773 5773 5773 5773 5773 5774 5774 5773 5773 5774 5774 5774 5774 5774 5774 5773 5772 5772 5771 5770 5771 5771 5770 5769 5767 5764 5763 5763 5761 5760 5758 5757 5756 5754 5755 5755 5755 5755 5756 5756 5756 5756 5756 5756 5755 5755 5755 5754 5754 5752 5752 5751 5750 5749 5748 5747 5746 5745 5745 5744 5744 5743 5743 5742 5742 5742 5741 5741 5740 5739 5737 5736 5735 5734 5733 5734 5734 5735 5736
5773 5773 5773 5773 5773 5773 5773 5773 5773 5773 5773 5773 5773 5773 5773 5773 5773 5773 5773 5773 5772 5772 5772 5771 5771 5770 5769 5769 5769 5769 5769 5767 5765 5763 5761 5760 5759 5756 5754 5753 5751 5751 5751 5751 5752 5752 5752 5753 5752 5752 5752 5752 5752 5751 5751 5750 5749 5748 5747 5746 5745 5745 5744 5743 5742 5741 5741 5740 5740 5739 5739 5738 5738 5738 5738 5737 5736 5735 5734 5733 5732 5731 5731 5732 5733 5733
5773 5773 5773 5773 5773 5773 5772 5772 5772 5772 5773 5773 5772 5772 5772 5772 5772 5772 5772 5771 5771 5771 5771 5771 5771 5771 5768 5767 5768 5768 5767 5766 5764 5762 5760 5759 5758 5755 5752 5750 5749 5748 5748 5749 5749 5749 5749 5749 5749 5749 5748 5749 5748 5748 5747 5746 5746 5745 5744 5743 5742 5741 5741 5740 5739 5738 5738 5737 5736 5736 5735 5735 5735 5735 5735 5734 5733 5732 5731 5731 5730 5729 5729 5730 5730 5731
5774 5773 5773 5773 5773 5773 5773 5772 5772 5772 5772 5772 5772 5772 5772 5771 5771 5771 5771 5771 5771 5771 5771 5770 5771 5770 5767 5765 5765 5765 5765 5764 5762 5761 5759 5757 5756 5754 5751 5749 5747 5746 5746 5746 5746 5746 5746 5746 5746 5746 5745 5745 5745 5745 5744 5743 5743 5742 5741 5740 5739 5738 5738 5736 5735 5735 5734 5734 5733 5732 5732 5732 5731 5731 5731 5731 5730 5729 5728 5728 5728 5728 5728 5728 5728 5728
5773 5773 5773 5773 5773 5772 5772 5772 5772 5772 5772 5771 5771 5771 5771 5771 5771 5771 5771 5770 5770 5770 5769 5769 5770 5768 5765 5764 5764 5763 5763 5763 5762 5760 5758 5756 5754 5752 5751 5749 5746 5745 5744 5744 5744 5744 5744 5743 5743 5743 5743 5743 5742 5742 5741 5740 5740 5739 5738 5737 5736 5735 5735 5734 5732 5731 5731 5730 5730 5729 5729 5729 5728 5728 5728 5728 5727 5727 5726 5726 5726 5726 5726 5726 5726 5726
5773 5772 5772 5772 5772 5772 5772 5772 5771 5771 5771 5770 5771 5770 5770 5770 5770 5770 5770 5770 5769 5769 5768 5768 5768 5767 5764 5763 5763 5762 5761 5761 5760 5758 5756 5754 5752 5751 5750 5748 5746 5745 5744 5743 5742 5742 5742 5742 5741 5741 5741 5740 5740 5739 5738 5738 5737 5736 5736 5735 5734 5733 5732 5731 5730 5729 5728 5727 5726 5726 5726 5725 5725 5725 5725 5725 5725 5724 5724 5724 5724 5724 5724 5723 5723 5723
5772 5771 5771 5771 5771 5771 5771 5770 5770 5770 5770 5770 5770 5770 5769 5769 5769 5769 5769 5768 5768 5767 5767 5766 5766 5765 5763 5762 5761 5760 5760 5759 5758 5757 5755 5753 5751 5750 5749 5748 5746 5745 5744 5743 5742 5741 5741 5740 5739 5739 5739 5738 5737 5737 5736 5735 5735 5734 5733 5732 5731 5731 5730 5729 5728 5727 5725 5724 5724 5723 5723 5723 5723 5723 5722 5722 5722 5722 5722 5722 5722 5722 5722 5722 5722 5722
5770 5770 5770 5770 5770 5770 5770 5770 5770 5769 5769 5769 5768 5768 5768 5768 5768 5768 5768 5767 5766 5767 5766 5765 5765 5763 5761 5761 5761 5759 5758 5757 5756 5755 5754 5752 5750 5748 5747 5746 5745 5744 5743 5742 5741 5740 5739 5739 5738 5737 5737 5736 5735 5734 5734 5733 5733 5732 5731 5730 5729 5729 5728 5727 5726 5725 5724 5723 5722 5721 5721 5721 5721 5721 5720 5720 5720 5720 5720 5720 5720 5720 5720 5720 5720 5720
5769 5769 5769 5769 5769 5769 5768 5768 5768 5768 5768 5767 5767 5767 5767 5767 5767 5766 5766 5766 5765 5766 5765 5763 5763 5761 5759 5760 5760 5758 5757 5756 5755 5754 5753 5751 5750 5748 5746 5745 5744 5743 5742 5741 5740 5739 5738 5737 5736 5735 5735 5734 5734 5733 5732 5731 5731 5730 5729 5729 5728 5727 5726 5725 5724 5723 5722 5721 5721 5720 5720 5719 5719 5719 5719 5719 5719 5718 5718 5718 5718 5718 5718 5718 5718 5719
5767 5767 5768 5768 5768 5768 5767 5767 5766 5765 5766 5766 5766 5766 5766 5765 5765 5765 5765 5764 5764 5764 5763 5762 5762 5760 5757 5757 5757 5756 5755 5754 5754 5753 5752 5750 5749 5747 5745 5744 5743 5741 5740 5739 5738 5737 5736 5735 5735 5734 5733 5733 5732 5731 5730 5729 5729 5728 5728 5727 5726 5725 5724 5723 5723 5722 5721 5720 5720 5719 5718 5718 5718 5717 5717 5717 5717 5717 5717 5716 5716 5716 5716 5717 5717 5716
5766 5766 5767 5767 5766 5767 5766 5765 5764 5763 5764 5764 5764 5764 5764 5764 5763 5763 5763 5762 5762 5762 5761 5760 5760 5758 5756 5755 5754 5753 5753 5753 5752 5751 5750 5749 5747 5746 5744 5743 5741 5740 5739 5738 5737 5736 5735 5734 5734 5733 5732 5731 5730 5729 5729 5728 5727 5727 5726 5725 5724 5724 5723 5722 5721 5720 5720 5719 5719 5718 5717 5717 5716 5716 5716 5716 5715 5715 5715 5715 5715 5715 5714 5715 5715 5714
5764 5764 5764 5765 5765 5765 5765 5763 5763 5762 5762 5762 5762 5762 5762 5761 5761 5761 5760 5760 5760 5759 5759 5759 5758 5756 5755 5754 5752 5751 5751 5751 5750 5749 5748 5747 5745 5744 5743 5741 5740 5738 5737 5736 5735 5735 5734 5733 5732 5732 5731 5730 5729 5728 5727 5727 5726 5725 5725 5724 5723 5722 5721 5721 5720 5719 5719 5718 5718 5717 5717 5716 5716 5715 5715 5715 5714 5714 5714 5713 5713 5713 5712 5713 5713 5712
5762 5762 5762 5762 5762 5763 5762 5762 5761 5761 5761 5761 5760 5760 5760 5759 5759 5758 5758 5758 5757 5756 5757 5757 5756 5754 5753 5752 5750 5748 5747 5748 5747 5746 5746 5745 5743 5742 5741 5739 5738 5737 5736 5735 5734 5733 5733 5732 5731 5730 5729 5729 5728 5727 5726 5725 5725 5724 5723 5722 5722 5721 5720 5720 5719 5718 5718 5717 5717 5716 5716 5716 5715 5715 5714 5714 5713 5713 5712 5712 5711 5711 5711 5711 5711 5710
5759 5759 5759 5759 5759 5760 5760 5759 5758 5758 5758 5758 5757 5758 5757 5757 5756 5756 5755 5756 5755 5753 5754 5755 5753 5752 5752 5750 5749 5747 5745 5745 5744 5743 5743 5742 5741 5739 5738 5737 5736 5734 5734 5733 5732 5731 5731 5730 5730 5729 5728 5727 5726 5726 5725 5724 5723 5723 5722 5721 5720 5720 5719 5718 5718 5717 5717 5716 5716 5716 5715 5715 5714 5714 5713 5713 5712 5712 5711 5711 5710 5710 5710 5709 5709 5709
5755 5756 5756 5755 5756 5756 5757 5756 5756 5755 5754 5755 5755 5755 5755 5754 5753 5753 5753 5753 5752 5751 5751 5751 5749 5749 5749 5748 5746 5745 5744 5743 5742 5741 5740 5739 5738 5737 5736 5734 5733 5732 5731 5730 5730 5730 5729 5728 5727 5727 5726 5725 5725 5724 5723 5722 5722 5721 5720 5720 5719 5718 5718 5717 5717 5716 5716 5715 5715 5715 5714 5714 5714 5713 5713 5712 5712 5711 5710 5710 5709 5709 5709 5708 5708 5707
5752 5752 5752 5752 5752 5753 5754 5753 5752 5752 5751 5752 5753 5752 5751 5751 5750 5750 5750 5749 5749 5748 5748 5748 5747 5747 5747 5744 5743 5742 5741 5740 5740 5739 5737 5737 5736 5734 5733 5732 5730 5728 5728 5727 5727 5727 5727 5726 5725 5725 5724 5724 5723 5722 5721 5721 5720 5719 5719 5718 5717 5717 5716 5716 5715 5715 5714 5714 5714 5713 5713 5713 5713 5712 5712 5711 5711 5710 5710 5709 5709 5708 5708 5707 5707 5706
5749 5749 5749 5749 5748 5750 5750 5749 5749 5748 5747 5749 5750 5749 5748 5748 5747 5747 5747 5746 5746 5745 5745 5744 5744 5744 5743 5741 5740 5739 5738 5737 5737 5736 5735 5734 5733 5732 5731 5730 5728 5726 5725 5724 5724 5724 5725 5724 5723 5723 5722 5722 5721 5720 5719 5719 5718 5717 5717 5716 5716 5715 5715 5714 5714 5713 5713 5712 5712 5712 5712 5712 5711 5711 5711 5710 5710 5709 5709 5709 5708 5708 5707 5707 5706 5706
5746 5746 5746 5745 5744 5746 5747 5746 5745 5743 5743 5746 5747 5745 5745 5745 5744 5744 5744 5743 5743 5742 5742 5742 5741 5741 5740 5738 5738 5736 5735 5734 5734 5733 5732 5731 5730 5730 5729 5727 5726 5725 5723 5722 5721 5721 5722 5723 5721 5720 5720 5719 5719 5718 5717 5716 5716 5715 5714 5714 5713 5713 5713 5712 5712 5711 5711 5711 5710 5710 5710 5710 5710 5710 5709 5709 5709 5708 5708 5708 5707 5707 5706 5706 5705 5705
5744 5743 5743 5742 5741 5742 5744 5743 5741 5739 5741 5743 5742 5740 5743 5743 5741 5741 5741 5740 5740 5739 5738 5739 5738 5738 5736 5735 5735 5733 5732 5732 5731 5730 5729 5728 5727 5726 5726 5725 5724 5723 5722 5720 5718 5717 5719 5720 5719 5718 5717 5717 5716 5716 5715 5714 5713 5712 5712 5711 5711 5711 5710 5710 5710 5709 5709 5709 5709 5708 5708 5708 5708 5708 5708 5708 5707 5707 5707 5706 5706 5705 5705 5705 5704 5703
5741 5741 5740 5739 5738 5739 5740 5739 5737 5736 5739 5740 5737 5736 5739 5740 5738 5737 5737 5737 5736 5735 5735 5735 5735 5734 5733 5732 5731 5730 5729 5728 5727 5726 5726 5725 5724 5723 5723 5722 5721 5720 5719 5717 5716 5715 5716 5717 5716 5715 5715 5714 5713 5713 5712 5711 5711 5710 5709 5709 5709 5708 5708 5708 5707 5707 5707 5707 5706 5706 5706 5706 5706 5706 5706 5706 5706 5705 5705 5705 5704 5704 5704 5703 5702 5702
5738 5738 5737 5737 5736 5736 5736 5735 5734 5734 5735 5735 5734 5733 5734 5735 5735 5734 5734 5734 5733 5732 5732 5732 5731 5731 5730 5729 5728 5727 5725 5725 5724 5723 5723 5722 5721 5720 5720 5719 5718 5718 5716 5714 5713 5714 5714 5714 5713 5712 5712 5711 5711 5710 5709 5709 5708 5707 5707 5707 5706 5706 5706 5705 5705 5705 5705 5704 5704 5704 5704 5704 5704 5704 5704 5704 5704 5704 5703 5703 5703 5702 5702 5702 5701 5701
5736 5735 5734 5734 5734 5733 5732 5732 5731 5731 5732 5732 5731 5730 5729 5730 5730 5729 5730 5730 5729 5728 5729 5729 5728 5728 5726 5725 5724 5723 5723 5723 5722 5720 5719 5719 5718 5717 5717 5717 5716 5715 5714 5711 5711 5712 5711 5710 5710 5709 5709 5708 5708 5707 5707 5706 5705 5705 5705 5704 5704 5704 5703 5703 5703 5703 5702 5702 5702 5702 5702 5702 5702 5702 5702 5702 5702 5702 5701 5701 5701 5701 5700 5700 5700 5699
5733 5733 5732 5731 5731 5730 5729 5729 5728 5728 5729 5729 5728 5727 5727 5727 5726 5725 5726 5727 5725 5724 5724 5725 5725 5724 5723 5722 5721 5720 5721 5720 5719 5717 5716 5716 5716 5715 5715 5715 5714 5713 5711 5710 5710 5709 5708 5707 5707 5707 5706 5706 5705 5705 5704 5704 5703 5703 5702 5702 5702 5701 5701 5701 5701 5700 5700 5700 5700 5700 5700 5700 5700 5700 5700 5700 5700 5700 5700 5700 5699 5699 5699 5699 5698 5698
5731 5731 5730 5729 5729 5728 5726 5726 5726 5726 5726 5726 5724 5723 5724 5724 5723 5722 5723 5722 5721 5720 5721 5721 5721 5720 5719 5719 5718 5717 5718 5717 5715 5715 5714 5713 5713 5713 5712 5712 5712 5710 5709 5708 5708 5706 5705 5705 5705 5704 5704 5703 5703 5702 5702 5701 5701 5700 5700 5700 5699 5699 5699 5698 5698 5698 5698 5698 5698 5698 5698 5698 5698 5698 5698 5698 5698 5698 5698 5698 5698 5698 5698 5697 5697 5697
5729 5729 5728 5727 5727 5726 5724 5723 5723 5723 5724 5723 5721 5720 5719 5720 5720 5720 5719 5718 5716 5716 5716 5717 5718 5717 5716 5716 5715 5714 5714 5714 5713 5713 5713 5711 5710 5711 5710 5709 5709 5708 5706 5706 5706 5704 5703 5703 5702 5702 5701 5701 5700 5700 5699 5699 5699 5698 5698 5697 5697 5697 5697 5696 5696 5696 5696 5696 5696 5696 5696 5696 5696 5696 5696 5696 5697 5697 5697 5697 5697 5696 5696 5696 5696 5695
5727 5726 5725 5724 5724 5723 5721 5720 5720 5722 5722 5720 5719 5717 5716 5716 5718 5717 5715 5714 5713 5713 5713 5713 5713 5714 5714 5714 5713 5711 5711 5711 5710 5710 5710 5709 5708 5708 5707 5707 5706 5705 5704 5703 5703 5702 5701 5701 5700 5699 5699 5698 5698 5697 5697 5697 5696 5696 5695 5695 5695 5695 5694 5694 5694 5694 5694 5694 5694 5694 5694 5694 5694 5695 5695 5695 5695 5695 5695 5695 5695 5695 5695 5695 5694 5694
5724 5723 5723 5722 5722 5720 5719 5717 5717 5719 5720 5718 5716 5714 5713 5714 5715 5713 5712 5712 5711 5710 5710 5710 5710 5710 5711 5711 5710 5709 5708 5708 5708 5707 5707 5707 5707 5706 5705 5704 5704 5702 5702 5701 5700 5700 5699 5698 5698 5697 5697 5696 5696 5695 5695 5694 5694 5694 5693 5693 5693 5693 5693 5692 5692 5692 5692 5692 5692 5692 5692 5692 5693 5693 5693 5694 5694 5694 5694 5694 5694 5694 5693 5693 5693 5692
5720 5719 5719 5719 5719 5718 5717 5716 5716 5715 5715 5715 5714 5712 5710 5711 5712 5710 5708 5709 5709 5708 5707 5707 5707 5707 5707 5708 5708 5706 5705 5705 5704 5705 5704 5704 5704 5703 5702 5702 5701 5700 5699 5699 5697 5697 5697 5696 5696 5695 5695 5694 5694 5693 5693 5692 5692 5692 5691 5691 5691 5691 5691 5691 5690 5690 5690 5690 5690 5690 5691 5691 5691 5692 5692 5692 5693 5693 5693 5693 5693 5692 5692 5691 5691 5690
5718 5717 5716 5715 5715 5714 5713 5714 5714 5713 5712 5712 5712 5710 5708 5707 5709 5708 5706 5706 5706 5705 5704 5704 5704 5704 5703 5704 5705 5704 5703 5702 5701 5701 5701 5701 5701 5700 5700 5700 5699 5698 5697 5696 5695 5695 5694 5694 5694 5693 5693 5693 5692 5692 5691 5691 5690 5690 5690 5689 5689 5689 5689 5689 5689 5689 5689 5689 5689 5689 5689 5690 5690 5690 5691 5691 5691 5691 5691 5691 5691 5691 5690 5690 5689 5689
5715 5715 5713 5712 5711 5710 5709 5710 5711 5710 5709 5709 5709 5709 5707 5705 5704 5705 5704 5703 5703 5702 5701 5700 5700 5700 5699 5700 5701 5701 5701 5700 5699 5698 5697 5697 5697 5697 5697 5697 5696 5695 5695 5694 5693 5692 5692 5692 5692 5692 5691 5691 5691 5690 5690 5689 5689 5688 5688 5688 5687 5687 5687 5687 5687 5687 5687 5687 5688 5688 5688 5689 5689 5689 5690 5690 5690 5690 5690 5689 5689 5689 5688 5688 5688 5687
5713 5712 5710 5710 5709 5708 5706 5707 5708 5707 5707 5707 5706 5706 5705 5703 5701 5701 5701 5701 5700 5699 5697 5697 5697 5696 5696 5696 5697 5697 5697 5696 5696 5695 5695 5694 5694 5693 5693 5693 5693 5693 5692 5692 5691 5690 5690 5690 5690 5690 5690 5689 5689 5688 5688 5688 5687 5687 5686 5686 5686 5686 5685 5686 5686 5686 5686 5686 5686 5687 5687 5687 5688 5688 5688 5688 5688 5688 5688 5688 5687 5687 5687 5686 5685 5685
5709 5708 5707 5707 5706 5704 5704 5706 5705 5704 5705 5705 5703 5702 5701 5700 5699 5698 5697 5697 5696 5695 5694 5694 5693 5692 5692 5692 5693 5693 5693 5693 5692 5692 5692 5692 5691 5690 5690 5690 5690 5690 5690 5690 5689 5688 5688 5688 5688 5688 5688 5687 5687 5687 5686 5686 5685 5685 5685 5684 5684 5684 5684 5684 5684 5684 5684 5684 5685 5685 5685 5686 5686 5686 5686 5686 5686 5686 5686 5686 5685 5685 5684 5684 5683 5682
5705 5704 5704 5704 5701 5700 5702 5704 5704 5703 5703 5703 5701 5699 5698 5696 5695 5694 5693 5692 5692 5691 5691 5690 5689 5688 5688 5688 5689 5689 5689 5689 5688 5688 5688 5688 5688 5687 5687 5687 5687 5687 5687 5687 5687 5686 5686 5686 5686 5685 5685 5685 5685 5685 5684 5684 5684 5683 5683 5683 5683 5682 5682 5682 5682 5683 5683 5683 5683 5683 5684 5684 5684 5684 5684 5684 5684 5684 5684 5683 5683 5682 5682 5681 5680 5680
5701 5700 5701 5699 5696 5697 5700 5701 5700 5700 5701 5700 5698 5696 5694 5693 5691 5690 5689 5688 5687 5686 5686 5686 5685 5684 5684 5685 5685 5685 5685 5685 5685 5685 5685 5684 5685 5685 5684 5683 5683 5684 5684 5685 5685 5684 5683 5683 5683 5683 5683 5683 5683 5683 5682 5682 5682 5682 5681 5681 5681 5681 5681 5681 5681 5681 5681 5681 5681 5682 5682 5682 5682 5682 5682 5682 5682 5682 5681 5681 5680 5680 5679 5678 5678 5677
5696 5696 5696 5694 5692 5694 5697 5697 5695 5694 5696 5697 5696 5693 5691 5689 5688 5687 5686 5684 5683 5682 5681 5681 5681 5680 5680 5680 5681 5680 5680 5681 5681 5681 5681 5681 5681 5681 5681 5680 5680 5680 5680 5681 5682 5682 5681 5681 5681 5681 5681 5681 5681 5681 5681 5680 5680 5680 5679 5679 5679 5679 5679 5679 5679 5679 5680 5680 5680 5680 5680 5680 5680 5680 5680 5679 5679 5679 5679 5678 5677 5677 5676 5675 5675 5674
5691 5690 5690 5689 5689 5691 5694 5693 5692 5690 5691 5692 5691 5690 5688 5686 5684 5683 5682 5680 5679 5678 5677 5676 5676 5676 5676 5676 5676 5675 5676 5677 5677 5677 5677 5677 5677 5677 5677 5677 5677 5677 5677 5677 5678 5679 5679 5678 5678 5678 5678 5679 5679 5678 5678 5678 5678 5678 5678 5678 5677 5677 5677 5677 5677 5677 5678 5678 5678 5678 5678 5678 5677 5677 5677 5677 5676 5676 5675 5675 5674 5674 5673 5672 5671 5670